Location: *
(48.8780°N, 19.2358°E)
Time: 10:48:11
(UTC+00:00)

Cosmos 2100 Rocket - Pass Details

Date: 18 October 2019
Orbit: 955 x 1002 km, 82.9° (Epoch: 12 November)

Event Time Altitude Azimuth Distance (km) Brightness Sun altitude
Rises 18:12:36 0° 349° (N) 3,676 7.3 -24.3°
Reaches altitude 10° 18:15:07 10° 348° (NNW) 2,718 6.6 -24.7°
Maximum altitude 18:21:20 78° 264° (W) 986 4.0 -25.7°
Enters shadow 18:25:38 21° 180° (S) 2,014 5.5 -26.4°
